Location: ????????
(56.0167°N, 38.0333°E)
Time: 02:18:16
(UTC+00:00)

Cosmos 1455 - Pass Details

Date: 19 May 2025
Orbit: 327 x 337 km, 82.5° (Epoch: 14 June)

Event Time Altitude Azimuth Distance (km) Brightness Sun altitude
Rises 22:04:47 0° 345° (NNW) 2,172 6.6 -13.5°
Reaches altitude 10° 22:06:46 10° 341° (NNW) 1,315 5.3 -13.5°
Maximum altitude 22:09:34 58° 262° (W) 408 1.5 -13.4°
Enters shadow 22:10:38 31° 195° (SSW) 630 2.1 -13.4°
